Location: *
(31.2983°S, 151.4094°E)
Time: 14:37:10
(UTC+00:00)

Cosmos 1891 Rocket - Pass Details

Date: 25 August 2019
Orbit: 933 x 1019 km, 82.9° (Epoch: 19 September)

Event Time Altitude Azimuth Distance (km) Brightness Sun altitude
Rises 18:14:37 0° 356° (N) 3,634 7.4 -27.2°
Reaches altitude 10° 18:17:04 10° 356° (N) 2,707 6.7 -26.7°
Maximum altitude 18:23:18 89° 273° (W) 998 4.4 -25.4°
Drops below altitude 10° 18:29:45 10° 174° (S) 2,798 7.0 -24.0°
Sets 18:32:20 0° 174° (S) 3,764 7.7 -23.4°
